User: anonymous
Location: Newsoms
(36.6240°N, 77.1250°W)
Time: 03:02:51
(UTC-04:00)
Language:

BREEZE-M DEB (TANK) - Orbit

View from above orbital plane
View from above orbital plane
View from above satellite
View from above satellite

Ground track
Ground track

The orbit data is extracted from the following two-line orbital elements,

1 29649U 06056B   14246.01865757  .00003978  00000-0  50283-3 0  9980
2 29649 049.4893 254.7439 5427826 248.8805 045.2649 04.94545672137098
Epoch (UTC): 03 September 2014 00:26:52
Eccentricity: 0.5427826
inclination: 49.4893°
perigee height: 275 km
apogee height: 16073 km
right ascension of ascending node: 254.7439°
argument of perigee: 248.8805°
revolutions per day: 4.94545672
mean anomaly at epoch: 45.2649°
orbit number at epoch: 13709

The dashed part of the orbit path shows where the satellite is in the earth's shadow,  

DLR